Location: Bézac
(43.1486°N, 1.5753°E)
Time: 09:59:04
(UTC+00:00)

Daily predictions for brighter satellites

Satellite Brightness Start Highest point End
(mag) Time Altitude Azimuth Time Altitude Azimuth Time Altitude Azimuth
Cosmos 2366 rocket 4.1 19:04:33 10° N 19:10:58 80° E 19:17:19 10° S
Resurs 1-3 3.6 19:06:39 10° SSE 19:10:59 80° ENE 19:15:21 10° N
YAOGAN 1 4.1 19:08:33 10° SSW 19:12:34 39° W 19:16:38 10° NNW
Okean-O 4.2 19:11:49 10° ESE 19:14:53 19° ENE 19:17:57 10° NNE
ADEOS Rocket 4.0 19:10:49 10° S 19:16:03 45° W 19:21:21 10° NNW
Cosmos 1953 3.6 19:12:35 10° SSW 19:16:14 44° WNW 19:19:56 10° N
CZ-4B R/B 3.4 19:11:11 10° SSE 19:16:43 62° ENE 19:22:12 10° N
Cosmos 1975 Rocket 3.1 19:12:45 10° N 19:17:03 61° E 19:21:18 10° SSE
Nadezhda 3 Rocket 4.5 19:15:11 10° SSE 19:20:46 38° E 19:26:25 10° NNE
USA 186 1.8 19:20:19 10° SSE 19:23:17 52° ENE 19:26:14 10° N
Cosmos 1821 Rocket 4.1 19:18:35 10° N 19:24:39 57° E 19:30:37 10° SSE
Cosmos 1833 4.4 19:19:07 10° NNW 19:24:46 74° WSW 19:30:20 10° SSE
BREEZE-M R/B 4.0 19:22:41 10° NW 19:24:53 21° N 19:26:52 10° ENE
SL-27 R/B 2.2 19:22:15 10° N 19:25:05 48° ENE 19:27:51 10° SE
Cosmos 2218 Rocket 4.2 19:18:49 10° N 19:25:15 84° W 19:31:34 10° S
SPOT 1/Viking Rocket 3.6 19:20:04 10° SSE 19:25:17 83° ENE 19:30:31 10° NNW
Cosmos 1825 4.0 19:23:21 10° NNW 19:26:26 31° W 19:29:31 10° SSW
USA 267 3.7 19:22:13 10° NE 19:28:43 68° NW 19:35:11 10° WSW
Okean O Rocket 1.9 19:25:15 10° SE 19:29:25 48° ENE 19:33:38 10° N
Feng Yun 1-1 Rocket 4.3 19:24:49 10° SSE 19:30:17 69° ENE 19:35:58 10° N
Cosmos 1782 Rocket 4.4 19:28:45 10° SSW 19:33:02 56° W 19:37:23 10° N
CZ-4 R/B 1.9 19:30:36 10° S 19:34:28 60° W 19:38:18 10° NNW
Atlas Centaur 2 3.6 19:32:07 10° SSW 19:35:03 15° S 19:37:20 11° SE
Cosmos 1486 Rocket 4.2 19:30:59 10° NNW 19:36:07 55° ENE 19:40:56 11° SE
Cosmos 1536 Rocket 4.4 19:39:06 10° NNE 19:43:04 31° ENE 19:45:49 17° SE
Resurs 01 Rocket 1.6 19:39:45 10° SSE 19:44:08 72° ENE 19:48:33 10° N
SJ 16-02 3.2 19:40:23 10° NW 19:44:11 30° W 19:47:57 10° SSW
DELTA 2 DEB (DPAF) 4.0 19:43:27 10° NNE 19:47:42 89° W 19:51:56 10° SSW
NOSS 3-1 (A) 2.9 19:44:57 10° SSW 19:49:45 83° SE 19:55:31 10° NE
ERS-1 Rocket 4.5 19:51:26 16° E 19:53:38 20° ENE 19:57:16 10° NNE
Tiangong -1.4 19:53:48 10° SW 19:56:37 33° SSE 19:57:17 29° SE
USA 229 DEB 3.9 19:53:14 10° S 19:58:41 37° ESE 20:04:34 10° NE
USA 229 3.9 19:53:20 10° S 19:58:48 37° ESE 20:04:40 10° NE
Cosmos 2151 Rocket 3.6 19:56:41 10° S 20:00:59 58° E 20:05:20 10° NNE
Cosmos 1934 Rocket 4.3 19:56:09 10° N 20:02:07 48° ENE 20:06:25 19° SE
USA 234 3.3 19:58:35 18° SE 20:03:42 87° SW 20:10:17 10° NW
USA 281 3.3 19:59:02 17° SE 20:04:17 68° ENE 20:10:50 10° NNW
Cosmos 2227 Rocket 3.7 20:05:30 10° N 20:09:50 22° NE 20:12:21 16° E
Iridium 2 3.5 20:11:34 10° N 20:14:17 40° ENE 20:14:17 40° ENE
SL-4 R/B 3.6 20:12:59 10° NW 20:15:56 23° N 20:17:57 14° NE
Landsat 4 4.5 20:17:01 29° ENE 20:17:15 30° ENE 20:20:22 10° N
MetOp-B 4.3 20:15:37 26° SE 20:18:28 54° ENE 20:23:41 10° N
Cosmos 371 Rocket 3.2 20:13:53 10° NNW 20:18:41 77° ENE 20:21:07 29° SSE
Cosmos 1697 Rocket 3.7 20:18:57 24° E 20:18:57 24° E 20:23:13 10° NE
CSL-04 Rocket 4.3 20:13:54 10° S 20:19:19 55° W 20:24:41 10° NNW
Cosmos 304 Rocket 3.7 20:17:46 10° NNW 20:22:32 67° ENE 20:24:31 34° SE
Okean 2 Rocket 3.1 20:18:31 10° S 20:23:02 87° WNW 20:27:34 10° N
Cosmos 1777 Rocket 4.0 20:17:52 10° NNW 20:23:10 72° ENE 20:25:46 30° SSE
ATLAS 3B R/B 3.4 20:16:36 10° SW 20:23:36 63° NW 20:31:08 10° NNE
COSMOS 2455 3.6 20:19:44 10° NNW 20:25:23 39° NE 20:27:59 27° E
Alouette 2 Rocket 4.3 20:18:50 10° N 20:25:57 66° ENE 20:28:14 32° SE
SPOT 5 3.1 20:26:03 30° SE 20:28:37 63° ENE 20:33:48 10° N
IRS-1A Rocket 4.4 20:28:48 30° SE 20:31:42 62° ENE 20:37:30 10° N
Cosmos 405 Rocket 4.3 20:33:27 21° NE 20:33:27 21° NE 20:35:13 10° NNE
BlueWalker 3 2.6 20:33:10 10° WSW 20:36:55 55° NNW 20:40:37 10° NE
Spot 2 Rocket 4.1 20:36:25 34° E 20:37:27 38° ENE 20:42:06 10° N
CZ-4C R/B 3.7 20:31:45 10° NNW 20:38:23 41° NE 20:42:37 25° E
Cosmos 2297 Rocket 2.3 20:33:05 10° NNW 20:38:41 59° ENE 20:40:35 39° ESE
Cosmos 1535 Rocket 4.5 20:33:51 10° N 20:40:13 69° E 20:43:11 33° SSE
Cosmos 1503 Rocket 4.3 20:35:27 10° NNW 20:40:47 65° WSW 20:43:37 28° S
Terra 2.2 20:40:08 40° E 20:40:52 43° ENE 20:45:20 10° N
Cosmos 1656 3.6 20:36:08 10° SSW 20:41:43 88° WNW 20:47:16 10° NNE
Cosmos 1354 Rocket 4.0 20:38:25 10° NNW 20:43:46 81° WSW 20:45:57 37° S
Cosmos 1455 Rocket 3.7 20:46:46 38° ENE 20:46:46 38° ENE 20:50:17 10° NNE
Okean 1 Rocket 3.1 20:44:00 27° SSW 20:46:22 80° W 20:50:52 10° N
Iridium 4 Rocket 3.6 20:44:01 26° S 20:47:16 89° E 20:53:06 10° N
ATLAS 5 CENTAUR R/B 4.4 20:45:58 10° WNW 20:47:48 14° NNW 20:49:45 10° N
USA 245 3.9 20:46:54 47° SE 20:48:09 63° ENE 20:52:36 10° N
Okean-O 3.5 20:48:37 24° SSW 20:50:56 45° W 20:55:11 10° NNW
Cosmos 332 Rocket 3.9 20:46:25 10° NNW 20:51:13 58° ENE 20:51:54 52° ESE
Cosmos 2219 4.5 20:48:41 10° N 20:53:22 26° NE 20:54:33 24° ENE
Ariane Rocket 3.0 20:56:30 52° ESE 20:57:13 58° ENE 21:02:10 10° N
Cosmos 1763 Rocket 3.3 20:57:45 54° SSE 20:58:44 69° ESE 21:03:51 10° NNE
Genesis I 3.6 20:57:28 10° NW 21:00:43 52° W 21:00:43 52° W
Cosmos 1437 Rocket 3.5 20:57:21 10° N 21:00:22 41° NE 21:00:22 41° NE
Cosmos 44 3.7 20:58:15 10° SW 21:03:40 74° NW 21:09:02 10° NNE
Cosmos 2263 Rocket 3.7 21:00:50 10° N 21:05:07 22° NE 21:06:06 21° ENE
Okean O Rocket 4.2 21:03:14 10° SW 21:05:58 16° W 21:08:42 10° NW
ARGOS Delta rocket 4.3 21:08:36 52° E 21:09:00 53° ENE 21:14:18 10° N
Cosmos 990 Rocket 3.8 21:06:19 10° NNW 21:11:30 73° ENE 21:11:52 69° ESE
Cosmos 1605 Rocket 4.1 21:10:35 10° N 21:16:58 77° W 21:19:09 44° S
Cosmos 540 Rocket 3.3 21:18:45 72° ENE 21:18:45 72° ENE 21:23:34 10° NNE
MOS 1 Rocket 3.8 21:25:22 45° NNE 21:25:22 45° NNE 21:28:41 10° N
Cosmos 1153 Rocket 4.4 21:18:44 10° N 21:25:04 75° E 21:25:55 65° SE
Cosmos 2058 4.1 21:23:55 10° N 21:26:27 35° NNE 21:26:27 35° NNE
Cosmos 468 Rocket 3.9 21:31:31 83° NNE 21:31:31 83° NNE 21:36:33 10° NNE
ERS-1 Rocket 3.4 21:31:22 49° SW 21:31:59 52° W 21:36:54 10° NNW
SPOT 3 Rocket 3.6 21:35:46 71° WSW 21:35:57 72° WSW 21:41:10 10° NNW
CENTAUR R/B 3.6 21:33:51 10° NNW 21:41:56 55° NE 21:44:48 42° E
ATLAS CENTAUR R/B 3.0 21:43:02 10° NNW 21:45:04 29° NNW 21:45:04 29° NNW
USA 229 DEB 4.5 21:43:31 10° WSW 21:49:25 46° NW 21:55:55 10° NNE
USA 229 4.5 21:43:36 10° WSW 21:49:31 46° NW 21:56:01 10° NNE
Cosmos 1727 Rocket 4.0 21:49:08 64° SW 21:50:04 77° W 21:56:21 10° N
Cosmos 1980 Rocket 2.9 21:55:14 43° NE 21:55:14 43° NE 21:59:02 10° NNE
Cosmos 2100 Rocket 3.9 21:47:53 10° N 21:54:15 80° E 21:54:15 80° E
Cosmos 2227 Rocket 2.3 21:48:45 10° NNW 21:54:10 66° W 21:54:10 66° W
SL-4 R/B 4.3 21:51:44 10° NW 21:52:47 18° NW 21:52:47 18° NW
Cosmos 1000 Rocket 4.4 22:01:36 85° N 22:01:36 85° N 22:07:34 10° N
Cosmos 1697 Rocket 3.4 22:00:33 37° WSW 22:02:20 51° WNW 22:07:51 10° NNE
Cosmos 1937 Rocket 4.0 21:59:31 10° NNW 22:03:47 56° N 22:03:47 56° N
Cosmos 2123 Rocket 4.2 22:05:45 60° NE 22:05:45 60° NE 22:11:12 10° NNE
COSMOS 2455 3.7 22:05:45 10° NW 22:11:08 38° WSW 22:11:08 38° WSW
ARIANE 5 R/B 4.3 22:17:17 30° N 22:17:17 30° N 22:19:41 10° N
Cosmos 1898 Rocket 4.3 22:12:19 10° NNW 22:16:18 48° NW 22:16:18 48° NW
Terra 3.8 22:18:50 21° W 22:18:50 21° W 22:22:12 10° NW
Cosmos 2297 Rocket 4.0 22:18:10 10° NW 22:22:12 20° W 22:22:24 20° WSW
Cosmos 2369 4.5 22:27:50 46° NNE 22:27:50 46° NNE 22:31:44 10° NNE
CZ-4C R/B 3.2 22:19:56 10° NW 22:27:18 61° WSW 22:27:43 60° SW
Cosmos 1725 Rocket 4.2 22:29:54 10° N 22:35:10 66° NNW 22:35:10 66° NNW
Cosmos 2233 Rocket 4.4 22:30:21 10° N 22:35:19 54° NNE 22:35:19 54° NNE
Cosmos 1459 Rocket 4.5 22:31:12 10° NNW 22:36:35 52° WNW 22:36:35 52° WNW
Cosmos 2219 4.1 22:32:21 10° NNW 22:36:27 42° WNW 22:36:27 42° WNW
Cosmos 2061 Rocket 4.3 22:36:33 10° N 22:42:00 65° N 22:42:00 65° N
Cosmos 2263 Rocket 3.2 22:43:59 10° NNW 22:47:47 42° NW 22:47:47 42° NW
Cosmos 2322 Rocket 4.2 23:03:59 19° NE 23:03:59 19° NE 23:05:42 10° NE
NOSS 3-2 (A) 4.1 23:00:08 10° NW 23:07:20 77° W 23:07:20 77° W
SL-16 R/B 3.6 23:22:58 33° NNE 23:22:58 33° NNE 23:26:00 10° NNE
USA 238 DEB 4.3 23:25:16 10° NNW 23:32:29 55° NE 23:32:58 54° ENE
USA 238 4.3 23:25:23 10° NNW 23:32:35 54° NE 23:33:06 53° ENE
CENTAUR R/B 3.8 23:24:43 10° NW 23:31:56 46° W 23:31:56 46° W
Cosmos 1844 Rocket 3.9 23:28:37 10° NNW 23:32:09 38° N 23:32:09 38° N
Cosmos 1980 Rocket 4.2 23:36:55 20° WNW 23:37:58 21° NW 23:42:11 10° N
